EHI
0 0 0 0 0 0 0 0 0 0 1 1 1 0 0 0 0 0 0 0 0 0 0 0 0 0 0 0 0 0 0 0 0 0 0 0 0 0 0 0 0 0 0 0
0 0 0 0 0 0 0 0 0 0 0 1 1 0 0 0 0 0 0 0 0 0 0 0 0 0 0 0 0 0 0 0 0 0 0 0 0 0 0 0 0 0 0 0
0 0 0 0 0 0 0 0 0 0 0 1 1 0 0 0 0 0 0 0 0 0 0 0 0 0 0 0 0 0 0 0 0 0 0 0 0 0 0 0 0 0 0 0
0 0 0 0 0 0 0 0 0 0 0 0 0 0 0 0 0 0 0 0 0 0 0 0 0 0 0 0 0 0 0 0 0 0 0 0 0 0 0 0 0 0 0 0
0 0 0 0 0 0 0 0 0 0 0 0 0 0 0 0 0 0 0 0 0 0 0 0 0 0 0 0 0 0 0 0 0 0 0 0 0 0 0 0 0 0 0 0
0 0 0 0 0 0 0 0 0 1 0 0 0 0 0 0 0 0 0 0 0 0 0 0 0 0 0 0 0 0 0 0 0 0 0 0 0 0 0 0 0 0 0 0
0 0 0 0 0 0 0 0 0 0 0 0 0 0 0 0 0 0 0 0 0 0 0 0 0 0 0 0 0 0 0 0 0 0 0 0 0 0 0 0 0 0 0 0
0 0 0 0 0 0 0 0 0 0 0 0 0 0 0 0 0 0 0 0 0 0 0 0 0 0 0 0 0 0 0 0 0 0 0 0 0 0 0 0 0 0 0 0
0 0 0 0 0 0 0 0 0 0 0 0 0 0 0 0 0 0 0 0 0 0 0 0 0 0 0 0 0 0 0 0 0 0 0 0 0 0 0 0 0 0 0 0
0 0 0 0 0 0 0 0 0 0 0 0 0 0 0 0 0 0 0 0 0 0 0 0 0 0 0 0 0 0 0 0 0 0 0 0 0 0 0 0 0 0 0 0
0 0 0 0 0 0 0 0 0 0 0 0 0 0 0 0 0 0 0 0 0 0 0 0 0 0 0 0 0 0 0 0 0 0 0 0 0 0 0 0 0 0 0 0
0 0 0 0 0 0 0 0 0 0 0 0 0 0 0 0 0 0 0 0 0 0 0 0 0 0 0 0 0 0 0 0 0 0 0 0 0 0 0 0 0 0 0 0
0 0 0 0 0 0 0 0 0 0 0 0 0 0 0 0 0 0 0 0 0 0 0 0 0 0 0 0 0 0 0 0 0 0 0 0 0 0 0 0 0 0 0 0
1 1 0 0 0 0 0 0 0 0 0 0 0 0 0 0 0 0 0 0 0 0 0 0 0 0 0 0 0 0 0 0 0 0 0 0 0 0 0 0 0 0 0 0
0 0 0 0 0 0 0 0 0 0 0 0 0 0 0 0 0 0 0 0 0 0 0 0 0 0 0 0 0 0 0 0 0 0 0 0 0 0 0 0 0 0 0 0
0 0 0 0 0 0 0 0 0 0 0 0 0 0 0 0 0 0 0 0 0 0 0 0 0 0 0 0 0 0 0 0 0 0 0 0 0 0 0 0 0 0 0 0
0 0 0 0 0 0 0 0 0 0 0 0 0 0 0 0 0 0 0 0 0 0 0 0 0 0 0 0 0 0 0 0 0 0 0 0 0 0 0 0 0 0 0 0
0 0 0 0 0 0 0 0 0 0 0 0 0 0 0 0 0 0 0 0 0 0 0 0 0 0 0 0 0 0 0 0 0 0 0 0 0 0 0 0 0 0 0 0
0 0 0 0 0 0 0 0 0 0 0 0 0 0 0 0 0 0 0 0 0 0 0 0 0 0 0 0 0 0 0 0 0 0 0 0 0 0 0 0 0 0 0 0
0 0 0 0 0 0 0 0 0 0 0 0 0 0 0 0 0 0 0 0 0 0 0 0 0 0 0 0 0 0 0 0 0 0 0 0 0 0 0 0 0 0 0 0
0 0 0 0 0 0 0 0 0 0 0 0 0 0 0 0 0 0 0 0 0 0 0 0 0 0 0 0 0 0 0 0 0 0 0 0 0 0 0 0 0 0 0 0
0 0 0 0 0 0 0 0 0 0 0 0 0 0 0 0 0 0 0 0 0 0 0 0 0 0 0 0 0 0 0 0 0 0 0 0 0 0 0 0 0 0 0 0
0 0 0 0 0 0 0 0 0 0 0 0 0 0 0 0 0 0 0 0 0 0 0 0 0 0 0 0 0 0 0 0 0 0 0 0 0 0 0 0 0 0 0 0
0 0 0 0 0 0 0 0 0 0 0 0 0 0 0 0 0 0 0 0 0 0 0 0 0 0 0 0 0 0 0 0 0 0 0 0 0 0 0 0 0 0 0 0
0 0 0 0 0 0 0 0 0 0 0 0 0 0 0 0 0 0 0 0 0 0 0 0 0 0 0 0 0 0 0 0 0 0 0 0 0 0 0 0 0 0 0 0
0 0 0 0 0 0 0 0 0 0 0 0 0 0 0 0 0 0 0 0 0 0 0 0 0 0 0 0 0 0 0 0 0 0 0 0 0 0 0 0 0 0 0 0
0 0 0 0 0 0 0 0 0 0 0 0 0 0 0 0 0 0 0 0 0 0 0 0 0 0 0 0 0 0 0 0 0 0 0 0 0 0 0 0 0 0 0 0
Wind_Speed
6 5 5 5 5 5 6 7 7 2 2 7 10 13 15 15 14 13 12 11 11 10 10 10 11 11 10 10 10 10 11 11 10 9 9 8 8 8 8 8 8 8 8 8
5 4 5 5 4 4 3 3 2 2 3 8 11 13 14 15 15 15 14 13 12 11 11 10 11 10 10 10 10 10 10 10 9 8 8 8 8 8 8 8 8 7 7 8
4 3 6 5 2 2 1 0 1 1 5 13 13 14 16 16 16 15 15 14 13 12 10 10 9 10 10 10 10 9 9 9 9 8 8 7 7 7 7 7 7 7 7 7
4 4 6 4 3 0 1 2 2 4 11 13 12 11 12 13 14 15 14 14 12 11 10 10 10 9 9 10 9 9 9 8 8 7 7 7 7 7 6 6 6 6 6 6
5 5 3 5 4 3 2 2 3 9 12 12 14 11 8 9 11 12 13 13 11 11 10 10 11 10 9 9 8 8 8 8 7 7 7 7 7 6 6 5 5 5 5 5
5 6 3 5 5 2 3 4 7 11 14 15 14 8 7 11 13 13 13 12 11 11 10 10 10 10 9 8 8 8 7 7 7 6 6 6 6 5 5 4 4 4 5 4
6 5 1 6 4 4 4 5 11 12 13 13 7 6 14 16 15 14 14 13 12 11 10 9 9 9 8 8 7 7 7 7 7 6 6 6 5 4 4 3 4 3 4 4
4 4 3 5 4 0 6 8 11 12 12 10 12 17 17 17 16 15 15 14 12 10 9 8 8 8 8 7 7 7 7 7 6 5 5 6 5 4 3 2 3 3 3 3
3 5 6 3 4 5 5 10 11 13 13 14 16 17 17 16 16 15 14 13 11 11 10 8 7 7 8 8 7 6 6 7 6 6 5 5 4 4 3 2 2 2 2 3
4 6 6 5 6 7 9 12 13 14 15 16 17 18 17 15 14 14 13 12 10 11 10 9 8 7 7 7 6 6 6 6 5 5 5 4 2 3 3 3 3 3 3 3
4 8 8 7 8 11 13 15 16 15 15 16 18 18 17 15 14 13 12 11 10 10 10 10 9 8 8 7 6 6 6 5 4 4 4 4 4 5 5 7 6 5 5 4
2 10 8 11 11 14 16 16 17 17 16 16 17 17 16 14 13 13 13 11 10 11 10 10 9 9 7 6 6 5 5 4 3 3 3 2 4 5 6 4 4 3 4 6
7 11 13 15 14 15 16 16 16 17 17 16 16 16 16 14 13 13 13 12 12 11 11 10 9 8 7 6 5 5 4 3 2 2 2 2 2 2 4 5 3 2 1 1
16 17 17 15 15 15 17 17 17 17 16 16 16 16 15 15 14 13 13 12 12 12 11 10 8 8 7 6 5 4 4 4 1 1 1 2 2 2 2 3 4 5 6 3
13 12 16 18 17 17 17 17 18 17 16 16 15 16 16 15 14 13 12 12 12 11 10 9 8 8 6 6 5 4 2 3 2 2 1 2 1 2 2 2 2 2 4 6
15 18 20 20 19 18 18 19 18 17 17 16 16 15 15 15 14 13 12 12 11 11 9 9 8 7 6 6 5 4 3 3 1 0 2 2 2 2 2 2 2 2 2 3
21 21 21 20 20 19 18 17 17 17 17 16 16 16 15 15 14 13 12 11 9 9 8 8 7 7 6 5 4 3 3 5 5 3 2 2 2 2 2 2 2 2 3 5
18 20 20 21 19 19 18 18 17 17 17 17 17 16 15 15 14 13 12 10 9 9 8 7 7 7 6 5 3 2 2 3 3 2 3 2 2 2 2 2 2 2 2 4
18 19 19 19 19 18 17 17 17 17 17 17 16 15 14 14 13 12 11 10 10 9 8 7 5 6 6 4 2 3 2 3 3 3 3 3 3 2 2 2 1 1 1 1
19 20 20 20 19 18 17 17 17 16 16 16 16 15 14 13 13 12 11 9 7 7 8 8 8 7 6 5 4 3 3 3 3 3 3 3 3 3 2 1 1 1 1 1
20 21 21 19 18 18 17 18 17 16 16 16 15 15 14 13 12 11 10 8 8 8 8 7 6 6 5 4 6 3 3 3 3 4 3 3 3 3 2 2 1 1 1 1
20 20 20 19 18 17 16 16 16 17 16 15 15 15 14 13 12 10 9 6 9 8 8 8 7 5 4 4 6 4 4 3 3 3 3 3 3 3 2 2 1 0 0 0
18 19 19 19 18 17 17 16 16 16 16 15 15 14 14 12 10 9 9 7 8 9 8 6 7 9 5 7 5 4 4 4 3 3 4 3 3 3 2 2 2 1 1 1
18 18 18 18 18 18 17 16 16 14 14 14 14 14 12 10 9 8 6 8 8 10 8 7 10 9 8 7 5 4 4 5 4 4 4 4 4 3 3 3 3 2 2 2
18 18 19 19 17 15 16 16 16 15 15 12 14 14 11 9 9 8 7 10 11 10 9 10 11 9 9 7 6 5 5 4 3 3 4 4 4 4 4 3 3 3 3 3
17 16 15 15 13 13 13 13 13 13 12 12 12 12 10 9 9 8 8 10 13 10 9 9 11 10 10 8 7 6 5 5 6 6 5 5 5 5 4 4 5 4 4 4
17 14 13 13 13 13 13 13 13 13 13 12 12 12 11 10 9 9 10 9 10 11 10 9 10 10 10 8 7 7 6 6 6 6 6 6 6 6 6 6 6 5 5 5
Wind_Direction
282 283 271 272 270 257 258 282 296 303 162 160 156 151 148 144 143 139 137 135 132 125 119 117 114 110 107 106 105 104 103 100 98 96 95 95 94 91 89 86 88 88 86 80
249 237 242 248 253 252 257 279 285 151 126 134 138 141 147 151 151 148 146 143 138 131 128 127 124 121 119 116 113 110 107 105 104 103 100 97 96 95 91 87 85 86 80 78
254 221 240 235 246 247 204 81 229 236 130 139 145 153 159 159 159 156 152 148 145 139 136 134 131 129 127 123 120 116 112 111 112 109 104 101 99 96 93 91 90 87 83 80
262 236 250 73 72 61 122 82 25 93 131 148 148 147 152 158 157 154 151 148 144 140 140 139 135 129 127 127 125 120 116 113 110 109 106 103 99 96 95 94 92 90 86 83
263 258 254 135 155 179 215 120 113 131 132 129 124 118 127 146 149 148 147 143 140 141 141 139 135 133 132 130 124 119 113 109 107 109 108 107 102 100 99 98 96 97 91 83
262 283 302 91 117 136 234 151 135 143 144 146 154 155 146 146 140 138 138 138 138 138 137 138 140 141 140 134 126 117 111 105 105 105 103 100 100 101 100 101 100 97 90 76
265 274 66 84 128 198 257 90 141 150 152 160 169 113 131 140 139 140 140 139 140 140 139 139 143 144 137 132 124 118 109 104 100 99 98 98 101 100 105 103 95 88 93 89
263 269 88 95 169 316 56 110 137 142 145 133 109 115 129 135 138 140 139 142 144 143 140 140 145 142 133 127 123 120 111 106 102 98 96 99 99 97 94 96 121 114 106 97
9 46 76 71 59 67 108 128 133 137 134 128 127 130 133 136 138 139 141 143 146 144 139 142 149 146 134 128 126 121 114 109 107 102 93 87 93 104 113 110 84 89 88 81
133 107 104 99 101 109 119 125 129 132 133 134 132 133 133 134 136 138 140 142 144 143 141 141 143 140 130 129 127 124 120 117 118 115 108 94 76 74 67 60 62 72 61 58
135 126 126 115 116 118 117 121 125 129 132 133 133 134 135 135 138 139 140 143 144 144 143 140 138 134 132 133 133 126 124 126 128 117 101 100 82 51 41 55 35 15 29 34
144 156 146 132 130 130 128 129 131 130 128 132 135 135 135 134 136 139 142 145 145 146 143 141 140 138 135 138 139 138 141 145 137 127 116 118 122 118 72 59 84 57 21 356
109 128 117 126 132 132 130 130 131 131 131 133 134 135 133 134 138 140 143 146 146 146 143 140 139 136 135 138 139 136 130 129 135 122 124 120 113 116 131 140 158 148 105 8
119 118 123 131 130 130 129 128 126 126 129 131 133 134 134 135 139 142 143 144 145 144 143 143 141 137 139 141 140 139 136 128 155 127 104 92 93 93 100 120 144 148 148 141
139 132 131 131 130 130 131 131 130 130 131 133 135 136 138 140 141 140 140 141 143 145 145 147 146 141 145 147 146 147 146 120 116 97 114 104 108 107 94 92 82 95 124 140
131 128 133 136 137 140 141 141 137 137 138 138 140 141 141 139 138 138 141 146 150 149 147 148 146 145 150 150 156 158 133 83 334 192 135 127 132 117 106 100 86 76 80 76
143 146 146 145 146 147 146 144 141 141 141 142 141 141 140 140 140 143 147 150 148 144 147 149 149 151 154 160 184 171 146 140 185 223 140 112 115 111 106 90 81 87 80 65
153 151 151 149 148 147 145 144 143 144 143 141 141 143 145 147 148 149 149 147 147 148 154 158 156 162 161 163 186 197 163 145 158 130 120 113 108 126 122 104 91 85 100 130
147 147 147 147 147 146 145 146 146 145 144 145 148 149 149 150 150 151 152 157 161 161 160 151 145 185 165 148 205 201 186 155 146 137 127 131 187 153 133 124 105 79 52 47
147 147 147 147 147 147 146 146 146 146 148 150 150 151 153 153 154 156 162 169 171 152 150 156 176 182 170 161 237 211 164 171 162 155 160 168 161 149 149 136 98 66 38 29
150 150 149 149 148 148 148 149 150 150 152 155 156 156 156 157 160 163 175 169 154 151 153 162 190 181 179 160 221 218 168 172 174 167 170 167 163 169 166 168 159 64 38 16
153 152 152 150 150 150 151 152 154 154 155 159 160 159 159 163 167 172 185 171 154 160 182 183 190 155 146 204 215 198 175 180 188 174 166 170 178 185 185 196 206 200 217 314
154 154 153 154 153 151 153 157 158 159 162 165 165 166 168 170 173 177 178 174 166 174 203 187 142 137 172 228 222 197 185 193 198 187 174 183 196 200 200 206 220 235 254 270
155 156 155 154 153 155 159 162 161 164 167 169 169 171 173 174 179 190 168 150 156 166 198 145 144 167 212 231 217 205 195 197 201 199 192 192 198 205 211 220 229 232 233 245
157 156 156 157 160 162 162 162 163 167 171 173 172 175 182 184 181 180 169 162 162 183 188 158 171 189 219 224 213 210 208 204 209 213 202 212 215 209 211 220 231 241 243 244
158 161 161 166 164 162 164 167 169 172 175 174 175 178 183 183 183 174 176 177 175 194 201 176 180 197 220 222 213 214 215 193 201 220 225 224 228 227 224 230 235 243 244 244
160 159 161 167 168 170 170 173 174 175 178 178 177 178 181 183 184 184 186 183 178 191 202 195 191 199 211 216 214 212 217 219 220 224 225 228 232 233 230 230 239 240 241 240